When you browse on this site, cookies collect data to enhance your experience and personalize the content and advertising you see.
Visit our Privacy Policy to learn more. By continuing to use the site, you agree to this use of cookies and data.
  • In United Kingdom
  • List of Countries
  • For 7 days
  • Water Temperature
  • Weather Map
  • Weather Widgets
  • user-avatar
    Login

    Hourly Weather Vidin

    Today, 24 January, Friday

    Time Temperature Precipitation Wind Pressure Humidity
    00:00 -1°C° 0 mm 2 mps 772 mmHg 75%
    01:00 0°C° 0 mm 1 mps 772 mmHg 76%
    02:00 0°C° 0 mm 1 mps 772 mmHg 79%
    03:00 -1°C° 0 mm 0 mps 772 mmHg 79%
    04:00 -1°C° 0 mm 0 mps 771 mmHg 80%
    05:00 -1°C° 0 mm 0 mps 771 mmHg 80%
    06:00 -2°C° 0 mm 0 mps 770 mmHg 80%
    07:00 -2°C° 0 mm 0 mps 770 mmHg 80%
    08:00 -1°C° 0 mm 1 mps 770 mmHg 80%
    09:00 0°C° 0 mm 1 mps 770 mmHg 73%
    10:00 +2°C° 0 mm 1 mps 770 mmHg 66%
    11:00 +3°C° 0 mm 1 mps 770 mmHg 59%
    12:00 +4°C° 0 mm 1 mps 769 mmHg 55%
    13:00 +5°C° 0 mm 1 mps 768 mmHg 51%
    14:00 +5°C° 0 mm 0 mps 768 mmHg 47%
    15:00 +4°C° 0 mm 0 mps 767 mmHg 50%
    16:00 +4°C° 0 mm 0 mps 767 mmHg 52%
    17:00 +3°C° 0 mm 0 mps 767 mmHg 54%
    18:00 +3°C° 0 mm 0 mps 767 mmHg 57%
    19:00 +2°C° 0 mm 0 mps 767 mmHg 60%
    20:00 +1°C° 0 mm 0 mps 767 mmHg 62%
    21:00 +1°C° 0 mm 0 mps 767 mmHg 62%
    22:00 +2°C° 0 mm 1 mps 767 mmHg 62%
    23:00 +2°C° 0 mm 1 mps 767 mmHg 62%

    Tomorrow, 25 January, Saturday

    Time Temperature Precipitation Wind Pressure Humidity
    00:00 +2°C° 0 mm 1 mps 766 mmHg 61%
    01:00 +2°C° 0 mm 1 mps 766 mmHg 60%
    02:00 +2°C° 0 mm 1 mps 765 mmHg 59%
    03:00 +1°C° 0 mm 2 mps 765 mmHg 58%
    04:00 +2°C° 0 mm 2 mps 765 mmHg 56%
    05:00 +2°C° 0 mm 2 mps 765 mmHg 55%
    06:00 +1°C° 0 mm 3 mps 765 mmHg 55%
    07:00 +1°C° 0 mm 3 mps 765 mmHg 56%
    08:00 +2°C° 0 mm 3 mps 765 mmHg 56%
    09:00 +4°C° 0 mm 4 mps 765 mmHg 52%
    10:00 +6°C° 0 mm 4 mps 765 mmHg 48%
    11:00 +8°C° 0 mm 4 mps 765 mmHg 44%
    12:00 +9°C° 0 mm 5 mps 764 mmHg 42%
    13:00 +12°C° 0 mm 5 mps 764 mmHg 40%
    14:00 +13°C° 0 mm 5 mps 763 mmHg 38%
    15:00 +12°C° 0 mm 5 mps 763 mmHg 43%
    16:00 +10°C° 0 mm 5 mps 763 mmHg 47%
    17:00 +10°C° 0 mm 4 mps 763 mmHg 52%
    18:00 +8°C° 0 mm 4 mps 764 mmHg 54%
    19:00 +7°C° 0 mm 4 mps 764 mmHg 56%
    20:00 +7°C° 0 mm 4 mps 764 mmHg 58%
    21:00 +6°C° 0 mm 4 mps 764 mmHg 59%
    22:00 +7°C° 0 mm 3 mps 764 mmHg 60%
    23:00 +7°C° 0 mm 3 mps 764 mmHg 61%

    Day after tomorrow, 26 January, Sunday

    Time Temperature Precipitation Wind Pressure Humidity
    00:00 +5°C° 0 mm 3 mps 764 mmHg 62%
    01:00 +6°C° 0 mm 2 mps 764 mmHg 63%
    02:00 +6°C° 0 mm 2 mps 764 mmHg 64%
    03:00 +5°C° 0 mm 2 mps 764 mmHg 65%
    04:00 +6°C° 0 mm 1 mps 764 mmHg 66%
    05:00 +6°C° 0 mm 1 mps 764 mmHg 67%
    06:00 +5°C° 0 mm 1 mps 764 mmHg 69%
    07:00 +5°C° 0 mm 1 mps 764 mmHg 71%
    08:00 +4°C° 0 mm 0 mps 764 mmHg 73%
    09:00 +6°C° 0 mm 1 mps 764 mmHg 69%
    10:00 +7°C° 0 mm 1 mps 764 mmHg 64%
    11:00 +9°C° 0 mm 1 mps 764 mmHg 60%
    12:00 +10°C° 0 mm 1 mps 764 mmHg 57%
    13:00 +10°C° 0 mm 1 mps 763 mmHg 54%
    14:00 +10°C° 0 mm 2 mps 763 mmHg 51%
    15:00 +10°C° 0 mm 2 mps 763 mmHg 53%
    16:00 +10°C° 0 mm 1 mps 763 mmHg 54%
    17:00 +10°C° 0 mm 1 mps 763 mmHg 55%
    18:00 +9°C° 0 mm 1 mps 763 mmHg 57%
    19:00 +8°C° 0 mm 1 mps 763 mmHg 59%
    20:00 +7°C° 0 mm 1 mps 763 mmHg 61%
    21:00 +7°C° 0 mm 1 mps 763 mmHg 62%
    22:00 +6°C° 0 mm 1 mps 763 mmHg 63%
    23:00 +6°C° 0 mm 1 mps 763 mmHg 65%

    27 January, Monday

    Time Temperature Precipitation Wind Pressure Humidity
    00:00 +5°C° 0 mm 1 mps 763 mmHg 66%
    01:00 +5°C° 0 mm 1 mps 763 mmHg 68%
    02:00 +5°C° 0 mm 1 mps 762 mmHg 69%
    03:00 +4°C° 0 mm 1 mps 762 mmHg 69%
    04:00 +4°C° 0 mm 1 mps 762 mmHg 69%
    05:00 +3°C° 0 mm 0 mps 762 mmHg 70%
    06:00 +3°C° 0 mm 0 mps 762 mmHg 70%
    07:00 +3°C° 0 mm 0 mps 762 mmHg 70%
    08:00 +3°C° 0 mm 0 mps 762 mmHg 70%
    09:00 +4°C° 0 mm 0 mps 762 mmHg 66%
    10:00 +5°C° 0 mm 0 mps 762 mmHg 63%
    11:00 +6°C° 0 mm 1 mps 762 mmHg 59%
    12:00 +6°C° 0 mm 0 mps 761 mmHg 58%
    13:00 +6°C° 0 mm 0 mps 761 mmHg 57%
    14:00 +7°C° 0 mm 0 mps 760 mmHg 56%
    15:00 +7°C° 0 mm 1 mps 760 mmHg 58%
    16:00 +7°C° 0 mm 1 mps 760 mmHg 61%
    17:00 +7°C° 0 mm 1 mps 760 mmHg 63%
    18:00 +7°C° 0 mm 1 mps 760 mmHg 66%
    19:00 +7°C° 0 mm 1 mps 760 mmHg 68%
    20:00 +6°C° 0 mm 1 mps 760 mmHg 71%
    21:00 +6°C° 0 mm 1 mps 760 mmHg 72%
    22:00 +6°C° 0 mm 1 mps 760 mmHg 74%
    23:00 +6°C° 0 mm 1 mps 760 mmHg 75%

    28 January, Tuesday

    Time Temperature Precipitation Wind Pressure Humidity
    00:00 +6°C° 0 mm 1 mps 760 mmHg 77%
    01:00 +6°C° 0 mm 1 mps 760 mmHg 79%
    02:00 +6°C° 0 mm 1 mps 759 mmHg 81%
    03:00 +6°C° 0 mm 1 mps 759 mmHg 83%
    04:00 +5°C° 0 mm 1 mps 759 mmHg 85%
    05:00 +4°C° 0 mm 2 mps 759 mmHg 87%
    06:00 +5°C° 0 mm 1 mps 758 mmHg 88%
    07:00 +4°C° 0 mm 1 mps 758 mmHg 88%
    08:00 +4°C° 0 mm 1 mps 758 mmHg 89%
    09:00 +6°C° 0 mm 1 mps 758 mmHg 82%
    10:00 +8°C° 0 mm 1 mps 757 mmHg 75%
    11:00 +9°C° 0 mm 1 mps 757 mmHg 68%
    12:00 +10°C° 0 mm 1 mps 757 mmHg 64%
    13:00 +11°C° 0 mm 1 mps 756 mmHg 59%
    14:00 +12°C° 0 mm 2 mps 756 mmHg 55%
    15:00 +12°C° 0 mm 1 mps 756 mmHg 57%
    16:00 +12°C° 0 mm 1 mps 756 mmHg 59%
    17:00 +11°C° 0 mm 1 mps 756 mmHg 61%
    18:00 +10°C° 0 mm 1 mps 756 mmHg 63%
    19:00 +9°C° 0 mm 2 mps 756 mmHg 66%
    20:00 +8°C° 0 mm 2 mps 757 mmHg 69%
    21:00 +8°C° 0 mm 2 mps 757 mmHg 70%
    22:00 +7°C° 0 mm 2 mps 757 mmHg 71%
    23:00 +7°C° 0 mm 2 mps 757 mmHg 72%

    29 January, Wednesday

    Time Temperature Precipitation Wind Pressure Humidity
    00:00 +7°C° 0 mm 2 mps 757 mmHg 71%
    01:00 +7°C° 0 mm 2 mps 756 mmHg 71%
    02:00 +8°C° 0 mm 2 mps 756 mmHg 71%
    03:00 +8°C° 0 mm 2 mps 756 mmHg 71%
    04:00 +7°C° 0 mm 2 mps 756 mmHg 72%
    05:00 +7°C° 0 mm 3 mps 756 mmHg 72%
    06:00 +8°C° 0.1 mm 3 mps 756 mmHg 72%
    07:00 +8°C° 0.1 mm 3 mps 757 mmHg 73%
    08:00 +7°C° 0.1 mm 4 mps 757 mmHg 73%
    09:00 +8°C° 0 mm 4 mps 757 mmHg 68%
    10:00 +9°C° 0 mm 5 mps 757 mmHg 64%
    11:00 +12°C° 0 mm 5 mps 757 mmHg 60%
    12:00 +12°C° 0 mm 5 mps 757 mmHg 56%
    13:00 +13°C° 0 mm 4 mps 756 mmHg 52%
    14:00 +14°C° 0 mm 4 mps 756 mmHg 49%
    15:00 +14°C° 0 mm 3 mps 756 mmHg 53%
    16:00 +14°C° 0 mm 2 mps 756 mmHg 57%
    17:00 +13°C° 0 mm 2 mps 756 mmHg 61%
    18:00 +13°C° 0 mm 2 mps 756 mmHg 64%
    19:00 +12°C° 0 mm 1 mps 756 mmHg 67%
    20:00 +12°C° 0 mm 1 mps 756 mmHg 70%
    21:00 +10°C° 0.2 mm 2 mps 756 mmHg 72%
    22:00 +10°C° 0.2 mm 3 mps 756 mmHg 73%
    23:00 +10°C° 0.2 mm 4 mps 757 mmHg 75%
    Show more